OneWeb SL0012

operational
NORAD ID: 44057 Int'l Des: 2019-010 Owner: ONEWEB Country: UK Constellation: oneweb
LEOCIRCULARPOLARONEWEB_TYPE

About OneWeb SL0012

Description loading...

Live Position

Loading 3D Globe...

Upcoming Passes

Altitude History

Altitude vs Time

uPlot chart will show altitude changes over time

Two-Line Element Set

1 44057U 19010A 25296.44665280 -.00000055 00000-0 -17641-3 0 9994
2 44057 87.8971 275.9560 0001472 86.1006 274.0294 13.16594874320417
Epoch: Oct 23, 2025 • Age: 15 hours

Current Status

Altitude 1205.3 km
Velocity 7.26 km/s
Sub-Earth Point 51.65°N, 31.04°E
Launch Date Feb 27, 2019
Age 6.6 years
Type internet

Technical Details

Classification Payload
Mass 148.00 kg
Dry Mass 140.00 kg
Total Mass 148.00 kg
Length 1.30 m
Diameter 1.00 m
Span 5.00 m
Shape Trapezoid+2 pan
Manufacturer ADST
Bus Type ARROW
Phase Status In Orbit
Owner/State ONEWEB/UK

Large Constellations

Loading constellations...